Temperature
4 4 5 5 5 5 5 5 5 5 5 5 5 5 5 5 5 6 6 6 6 6 6 6 7 7 7 7 7 7 7 7 7 7 7 6 6 6 7 7 7 7 7
3 3 3 4 4 4 4 4 4 4 4 4 4 4 4 4 4 5 5 5 5 5 6 6 6 6 6 6 6 6 6 6 6 6 6 5 5 6 6 6 6 6 6
2 2 2 3 3 3 3 3 3 3 3 3 3 3 3 4 4 4 4 4 5 5 5 5 5 5 5 5 6 6 6 6 5 5 5 5 5 5 5 5 5 5 5
1 1 1 2 2 2 2 2 2 2 3 3 3 3 3 3 3 3 3 4 4 4 4 4 4 5 5 5 5 5 5 5 5 5 5 5 5 4 4 4 5 5 5
1 1 1 1 1 1 1 2 2 2 2 2 2 2 2 2 3 3 3 3 3 3 3 4 4 4 4 4 4 4 4 4 4 5 5 5 4 4 4 3 4 4 5
-0 0 0 0 0 0 0 1 1 1 1 1 1 1 2 2 2 2 2 2 2 3 3 3 3 3 3 3 4 4 4 4 4 4 4 4 4 4 4 3 3 3 4
-1 -1 -1 -1 -1 -0 -0 -0 -0 0 0 0 1 1 1 1 1 2 2 2 2 2 2 2 2 2 3 3 3 3 3 3 3 3 3 3 3 3 3 3 3 2 3
-2 -1 -1 -1 -1 -1 -1 -1 -1 -1 -1 -0 -0 -0 0 0 1 1 1 1 1 1 1 1 2 2 2 2 2 2 2 2 2 2 2 2 2 2 2 2 2 1 1
-2 -2 -2 -2 -2 -2 -2 -1 -1 -1 -1 -1 -1 -1 -1 -1 -0 -0 -0 0 0 0 1 1 1 1 1 1 1 1 1 1 2 2 2 2 2 2 2 2 2 1 0
-3 -3 -3 -3 -2 -2 -2 -2 -2 -2 -2 -2 -2 -2 -2 -2 -1 -1 -1 -1 -0 -0 -0 -0 0 0 0 0 0 1 1 1 1 1 1 1 1 1 1 1 1 1 0
-4 -4 -3 -3 -3 -3 -3 -3 -3 -3 -3 -3 -2 -2 -2 -2 -2 -2 -1 -1 -1 -1 -1 -1 -1 -1 -0 -0 -0 -0 0 0 0 0 0 1 0 0 0 0 0 0 0
-4 -4 -4 -4 -4 -4 -4 -4 -4 -3 -3 -3 -3 -3 -3 -3 -2 -2 -2 -2 -2 -2 -2 -2 -2 -2 -1 -1 -1 -1 -1 -1 -0 -0 -0 -0 -0 -0 -0 -0 -0 -0 -0
-5 -5 -5 -5 -4 -4 -4 -4 -4 -4 -4 -4 -4 -4 -3 -3 -3 -3 -3 -3 -3 -3 -2 -2 -2 -2 -2 -2 -2 -2 -1 -1 -1 -1 -1 -1 -1 -1 -1 -1 -1 -1 -1
-5 -5 -5 -5 -5 -5 -5 -5 -5 -5 -5 -5 -5 -5 -4 -4 -4 -4 -4 -4 -4 -3 -3 -3 -3 -3 -3 -3 -3 -2 -2 -2 -2 -2 -2 -2 -2 -2 -2 -2 -2 -2 -2
-6 -6 -6 -6 -6 -6 -6 -6 -6 -6 -6 -6 -6 -6 -5 -5 -5 -5 -5 -4 -4 -4 -4 -4 -4 -4 -4 -3 -3 -3 -3 -3 -3 -2 -2 -2 -2 -2 -2 -3 -2 -3 -3
-6 -6 -6 -6 -6 -6 -6 -6 -7 -7 -7 -7 -7 -6 -6 -6 -6 -6 -5 -5 -5 -5 -5 -5 -5 -4 -4 -4 -4 -4 -4 -4 -4 -3 -3 -3 -3 -3 -3 -3 -3 -3 -3
-6 -6 -7 -7 -7 -7 -7 -7 -7 -7 -7 -7 -7 -7 -7 -7 -7 -7 -6 -6 -6 -6 -6 -5 -5 -5 -5 -5 -5 -5 -5 -5 -5 -4 -4 -4 -4 -4 -4 -4 -4 -4 -4
-7 -7 -7 -7 -7 -7 -7 -8 -8 -8 -8 -8 -8 -8 -8 -8 -7 -7 -7 -7 -7 -7 -6 -6 -6 -6 -6 -6 -6 -6 -6 -6 -5 -5 -5 -5 -4 -4 -4 -4 -4 -4 -4
-7 -7 -7 -8 -8 -8 -8 -8 -8 -8 -8 -8 -8 -8 -8 -8 -8 -8 -8 -8 -8 -7 -7 -7 -7 -7 -7 -7 -7 -6 -6 -6 -6 -6 -5 -5 -5 -5 -5 -5 -5 -5 -5
-8 -8 -8 -8 -8 -8 -8 -9 -9 -9 -9 -9 -9 -9 -9 -9 -9 -9 -9 -9 -8 -8 -8 -8 -8 -8 -8 -7 -7 -7 -7 -7 -7 -6 -6 -6 -6 -6 -6 -6 -5 -5 -5
-8 -8 -8 -9 -9 -9 -9 -9 -9 -9 -9 -9 -9 -9 -9 -9 -9 -9 -9 -9 -9 -9 -9 -9 -9 -9 -8 -8 -8 -8 -8 -8 -7 -7 -7 -7 -6 -6 -6 -6 -6 -6 -6
-9 -9 -9 -9 -9 -9 -10 -9 -9 -9 -10 -10 -10 -10 -10 -10 -10 -10 -9 -10 -10 -10 -10 -10 -10 -9 -9 -9 -9 -9 -9 -9 -8 -8 -8 -7 -7 -7 -7 -7 -6 -6 -6
-10 -10 -10 -10 -10 -10 -10 -10 -10 -10 -10 -10 -10 -10 -10 -10 -10 -10 -10 -10 -10 -11 -11 -11 -10 -10 -10 -10 -10 -9 -9 -9 -9 -9 -8 -8 -8 -8 -8 -7 -7 -7 -7
-10 -11 -11 -11 -11 -11 -11 -11 -11 -11 -11 -11 -11 -11 -11 -11 -11 -11 -11 -11 -11 -11 -11 -11 -11 -11 -11 -10 -10 -10 -10 -10 -9 -9 -9 -9 -9 -9 -8 -8 -8 -8 -8
-11 -11 -11 -11 -11 -12 -12 -12 -12 -12 -12 -12 -11 -11 -12 -12 -12 -12 -12 -12 -12 -12 -12 -12 -12 -12 -11 -11 -11 -11 -11 -10 -10 -10 -10 -9 -9 -9 -9 -9 -9 -9 -9
-12 -12 -12 -12 -12 -12 -12 -12 -12 -12 -12 -12 -12 -12 -12 -12 -12 -12 -12 -12 -12 -12 -12 -12 -12 -12 -12 -11 -11 -11 -11 -11 -11 -11 -10 -10 -10 -10 -10 -10 -10 -9 -9
Wind_Speed
2 3 4 4 4 4 4 3 3 2 3 2 2 2 1 1 1 1 2 3 4 4 4 3 3 3 2 2 3 2 3 2 2 3 2 3 2 2 1 2 3 3 4
3 3 3 4 4 3 3 3 2 2 2 1 1 1 1 1 1 1 1 2 3 4 3 3 3 2 2 2 2 3 2 1 2 2 3 1 1 2 1 1 1 1 3
4 3 3 3 3 2 2 2 2 2 2 2 2 2 2 2 1 0 0 0 2 3 3 3 3 2 2 2 2 3 3 3 1 1 3 3 2 1 2 1 0 0 1
3 3 2 2 2 1 1 2 2 2 2 2 2 2 2 2 2 2 1 1 2 2 3 3 3 3 3 2 2 2 2 4 3 1 0 1 3 2 1 2 1 1 1
3 3 2 2 1 1 1 1 2 2 1 1 2 2 1 1 1 1 2 2 2 2 2 3 3 3 3 3 3 2 1 2 3 3 1 1 1 1 3 2 2 2 2
1 1 1 2 2 2 2 1 1 1 1 0 0 1 1 1 1 2 2 2 1 2 3 3 3 3 3 3 4 4 3 3 3 3 2 2 2 2 2 3 2 3 3
1 2 2 2 2 2 2 2 1 1 1 1 1 1 2 2 3 4 4 3 2 2 4 4 4 4 4 4 4 4 4 4 4 4 3 3 3 2 2 3 2 2 2
2 2 1 1 1 2 2 2 2 2 2 1 2 2 2 2 3 4 4 4 4 4 4 5 5 5 5 5 5 4 5 5 5 6 5 3 4 3 3 3 3 2 2
2 2 2 2 2 1 2 2 2 2 3 3 3 2 2 3 3 4 3 3 3 4 5 5 5 5 6 6 5 5 6 6 6 6 6 5 4 3 3 4 4 5 4
2 2 2 2 2 2 2 2 2 2 3 3 3 3 3 3 3 3 4 4 4 4 4 4 5 5 5 6 5 5 5 6 6 6 6 6 5 4 4 4 4 5 5
0 1 1 2 2 2 2 3 3 3 3 4 4 3 3 3 3 3 4 4 4 4 4 5 5 5 5 5 5 6 6 7 7 7 7 8 6 5 5 4 4 5 5
1 1 1 2 3 3 3 3 3 3 4 4 4 4 4 4 3 4 5 5 4 4 5 5 5 6 6 6 7 7 7 8 8 8 8 8 7 7 6 5 6 6 5
1 2 2 2 2 3 3 3 3 4 4 4 4 4 4 4 4 5 5 5 5 5 5 5 6 7 7 7 7 8 8 8 9 8 9 9 8 8 7 7 7 6 6
2 2 2 2 3 3 3 3 4 4 4 4 4 4 5 5 5 5 5 5 5 5 5 6 6 7 7 7 8 8 8 8 8 8 8 9 10 10 9 8 8 7 7
3 3 3 3 3 4 4 4 4 5 4 4 4 5 5 5 5 5 5 5 5 6 6 6 6 6 6 7 8 8 8 8 8 8 8 9 11 12 11 9 8 8 7
4 4 4 4 4 4 5 5 5 5 5 4 5 5 5 5 5 5 5 5 5 5 5 6 6 6 6 9 11 9 7 8 8 8 8 9 10 12 15 16 14 12 10
5 5 5 5 5 5 5 5 5 5 5 5 5 5 5 5 6 6 6 6 6 5 6 6 6 7 8 10 11 12 8 7 8 8 7 8 8 10 8 12 14 14 16
6 6 5 5 5 4 5 5 5 5 5 5 5 5 5 6 6 6 6 6 5 5 6 7 7 7 8 11 11 11 8 7 7 8 8 8 8 8 8 8 10 10 11
6 6 5 5 4 4 4 4 4 4 4 5 6 6 6 6 6 6 7 6 6 6 6 6 6 7 8 11 11 10 6 6 8 8 8 9 8 12 13 10 10 10 10
4 4 4 4 4 4 3 3 4 5 5 6 6 6 6 6 7 7 7 6 6 6 6 7 6 7 8 11 11 11 6 7 7 7 7 10 11 12 13 9 9 11 10
5 4 3 3 4 4 3 4 5 6 6 6 6 6 6 6 6 6 5 5 5 5 5 6 7 6 8 10 11 11 6 6 7 6 6 7 11 13 13 11 8 11 9
5 4 4 4 4 4 3 4 6 6 6 5 6 6 6 5 5 5 5 4 4 4 5 5 6 6 7 8 9 11 11 9 7 7 6 7 11 13 13 11 10 12 10
5 4 4 5 5 4 4 5 6 5 5 5 6 5 6 5 5 5 5 4 3 4 4 4 5 5 5 6 10 11 11 11 8 7 10 11 12 12 10 11 11 9 6
4 4 4 4 5 5 5 5 5 5 4 5 6 5 5 5 5 4 4 4 4 4 5 5 5 6 6 5 5 5 7 9 9 7 9 12 13 10 9 8 7 6 6
4 4 4 5 6 6 5 6 5 4 4 5 5 5 5 5 5 5 4 5 5 6 6 5 5 6 6 8 10 8 6 6 7 6 5 4 4 4 4 4 4 5 5
4 4 4 5 5 5 6 6 5 4 4 4 5 4 4 4 4 4 5 7 7 9 10 10 9 8 10 12 12 13 13 11 9 6 4 4 5 5 5 5 5 5 5
Wind_Direction
151 111 108 108 105 100 106 115 121 131 132 139 146 146 168 153 112 122 122 129 129 126 114 110 111 106 119 134 130 129 115 86 88 88 63 21 31 63 72 88 96 98 106
95 96 96 103 109 115 114 116 124 134 132 149 167 162 160 173 165 121 113 138 137 136 131 118 127 123 105 125 132 130 131 123 114 117 120 78 352 349 358 42 105 103 104
148 137 118 116 108 114 131 131 114 125 131 103 96 93 67 46 50 357 302 224 158 149 144 137 131 140 138 169 171 159 148 164 191 141 137 150 201 250 307 328 352 146 109
152 144 134 133 138 150 137 124 123 105 97 107 127 148 175 200 223 217 235 243 195 174 171 166 158 160 161 179 199 179 169 165 181 204 88 158 153 166 234 291 295 277 219
170 168 165 171 157 112 116 120 109 82 73 110 148 173 223 225 221 210 214 230 227 212 203 193 184 185 185 190 192 201 208 183 188 185 172 123 76 155 173 225 261 286 267
146 122 77 80 61 60 66 70 82 48 44 81 177 198 229 237 215 224 223 233 252 238 232 223 211 210 206 207 208 205 212 213 206 203 194 182 178 188 177 200 225 251 264
118 94 68 62 56 49 41 35 49 7 348 326 268 252 248 235 224 222 224 227 239 247 238 231 226 226 225 222 215 217 222 220 220 216 216 212 215 192 189 190 214 245 268
73 78 80 79 48 33 29 25 9 349 339 305 295 280 264 253 257 238 233 230 234 236 229 227 228 232 233 232 222 229 226 221 222 226 223 224 226 207 200 192 186 243 268
57 53 42 40 32 13 357 352 353 345 336 324 314 302 289 277 275 267 243 241 243 243 233 229 233 236 236 233 228 237 235 225 223 224 223 228 232 224 216 205 193 194 230
31 28 24 10 1 344 342 353 351 333 321 319 313 305 298 287 281 276 261 254 252 252 243 239 240 242 241 236 235 242 244 231 229 225 219 225 227 224 223 219 215 210 215
0 341 352 354 354 0 4 356 348 343 337 327 317 317 315 305 295 284 277 267 262 254 250 248 248 249 248 242 239 239 240 234 233 230 224 226 221 223 223 223 222 222 216
347 348 356 3 6 5 355 344 339 335 328 323 318 309 312 314 300 289 284 280 266 258 254 252 252 253 253 248 241 240 239 236 234 232 227 229 226 223 223 223 227 228 223
345 353 8 7 353 344 338 331 328 323 322 321 317 311 308 303 295 288 283 280 273 265 261 254 251 250 249 247 246 243 241 241 237 233 229 227 222 228 227 225 228 230 235
306 327 335 327 327 326 320 317 319 318 317 315 311 304 299 293 289 290 286 280 276 270 262 259 255 253 251 249 247 246 243 245 243 240 236 230 224 226 224 228 227 225 226
297 298 301 304 312 317 316 315 316 317 313 308 306 301 303 302 300 297 293 286 279 277 270 265 265 262 255 249 245 244 243 244 244 243 242 241 237 234 230 231 223 218 223
277 284 290 294 298 301 304 309 309 310 311 303 300 305 309 308 303 297 294 290 283 278 276 267 263 263 265 263 256 253 246 246 244 245 246 247 245 243 243 243 239 229 225
272 273 273 269 274 278 285 289 295 304 306 303 302 305 304 301 298 298 297 291 284 280 275 271 265 264 267 269 264 258 254 249 246 244 246 251 248 246 241 245 246 243 240
278 275 273 277 280 283 288 289 294 297 297 298 299 299 300 297 298 296 292 288 285 280 275 274 268 266 270 272 269 265 258 252 251 246 244 246 247 245 245 244 241 239 239
275 274 271 273 278 281 282 286 290 293 294 294 295 295 295 294 294 292 289 288 286 285 278 276 271 267 273 274 270 266 258 255 256 252 247 245 242 247 249 246 245 244 246
297 291 289 289 283 286 280 277 283 287 287 290 293 292 290 288 286 285 285 285 282 281 282 281 275 269 270 275 271 265 252 254 258 255 252 253 252 252 249 241 240 243 244
310 305 296 291 285 286 280 278 281 282 287 293 295 293 292 289 285 286 286 283 282 285 285 284 283 278 276 278 273 268 253 251 256 256 254 253 259 259 257 253 242 247 248
314 313 306 302 301 293 282 282 284 291 298 298 297 297 297 295 297 290 289 286 281 283 284 283 285 282 281 282 278 275 270 267 256 256 256 255 260 262 262 258 254 257 256
306 310 304 304 306 301 286 282 292 300 302 302 300 299 302 301 299 292 286 288 279 272 278 279 283 288 286 282 284 283 280 278 274 267 265 266 265 264 263 262 261 258 249
304 309 307 306 308 308 301 291 295 300 298 298 299 299 302 302 299 295 288 279 268 267 271 275 280 285 286 284 283 280 282 281 278 276 272 269 267 263 260 258 257 251 244
301 300 293 296 300 309 309 305 302 297 296 296 296 298 297 294 296 294 284 282 268 266 266 264 267 275 277 280 286 286 278 270 266 271 270 264 261 255 251 250 249 245 243
298 297 294 295 300 305 307 308 305 295 287 292 296 296 296 293 292 296 300 294 292 295 290 281 280 280 280 287 290 289 288 287 283 279 268 263 260 257 252 249 249 244 241
Height
1501 1502 1503 1505 1506 1507 1509 1510 1511 1513 1514 1515 1516 1517 1518 1520 1521 1522 1523 1524 1525 1526 1527 1528 1529 1530 1531 1532 1534 1534 1536 1537 1539 1540 1542 1543 1544 1545 1546 1546 1547 1548 1549
1498 1500 1501 1502 1503 1504 1506 1507 1509 1510 1511 1513 1514 1515 1516 1517 1518 1519 1520 1521 1522 1524 1524 1525 1526 1527 1528 1529 1530 1532 1532 1534 1535 1537 1538 1540 1542 1542 1542 1543 1544 1545 1546
1496 1497 1498 1499 1500 1502 1503 1504 1506 1507 1509 1510 1512 1513 1513 1514 1515 1516 1517 1518 1519 1520 1521 1522 1523 1524 1525 1526 1527 1529 1529 1530 1532 1533 1535 1536 1536 1538 1539 1539 1540 1541 1542
1494 1495 1496 1497 1498 1499 1501 1502 1504 1505 1506 1507 1508 1509 1510 1510 1511 1513 1514 1515 1516 1517 1518 1519 1519 1520 1521 1522 1523 1525 1526 1527 1528 1530 1531 1532 1532 1534 1534 1536 1536 1537 1538
1493 1493 1494 1495 1496 1498 1499 1500 1501 1502 1503 1504 1505 1506 1507 1508 1509 1510 1511 1512 1513 1514 1515 1515 1516 1517 1518 1518 1520 1521 1522 1524 1525 1525 1526 1528 1529 1529 1530 1530 1532 1533 1534
1492 1492 1493 1494 1495 1496 1496 1497 1498 1499 1500 1501 1502 1503 1504 1504 1505 1506 1507 1507 1508 1509 1511 1511 1512 1513 1514 1514 1515 1516 1518 1519 1521 1522 1522 1523 1524 1525 1525 1526 1526 1527 1529
1490 1491 1491 1492 1492 1493 1494 1494 1495 1496 1497 1497 1498 1499 1500 1501 1502 1502 1503 1503 1504 1505 1506 1507 1508 1509 1509 1510 1511 1512 1513 1514 1516 1517 1518 1519 1520 1521 1522 1522 1522 1523 1523
1489 1489 1490 1490 1491 1491 1491 1492 1492 1493 1493 1494 1494 1495 1496 1497 1498 1498 1499 1499 1500 1501 1502 1502 1503 1504 1505 1505 1506 1507 1508 1509 1510 1511 1513 1514 1515 1516 1517 1518 1519 1518 1518
1489 1489 1489 1489 1489 1489 1489 1489 1490 1490 1490 1491 1491 1491 1492 1493 1493 1494 1494 1495 1495 1496 1497 1498 1498 1499 1500 1500 1501 1502 1503 1504 1505 1506 1507 1508 1510 1511 1512 1513 1514 1515 1513
1489 1488 1488 1488 1488 1488 1488 1488 1488 1487 1487 1487 1487 1488 1488 1488 1489 1489 1490 1490 1491 1491 1491 1492 1493 1493 1494 1495 1495 1496 1497 1497 1498 1500 1501 1502 1504 1505 1506 1507 1508 1509 1509
1488 1487 1487 1487 1486 1486 1486 1485 1485 1484 1484 1484 1484 1484 1484 1484 1484 1484 1485 1485 1485 1486 1486 1486 1487 1487 1488 1488 1489 1490 1490 1491 1492 1493 1494 1495 1497 1498 1499 1501 1502 1503 1504
1487 1486 1486 1485 1484 1483 1483 1482 1482 1481 1481 1481 1480 1480 1480 1480 1480 1480 1480 1480 1480 1480 1480 1480 1481 1481 1481 1482 1482 1483 1484 1484 1485 1486 1487 1488 1490 1491 1493 1494 1495 1496 1497
1485 1485 1484 1483 1482 1481 1480 1480 1479 1478 1478 1477 1477 1476 1476 1475 1475 1475 1475 1475 1475 1474 1475 1475 1475 1475 1475 1475 1476 1476 1477 1478 1479 1479 1480 1481 1483 1484 1485 1487 1488 1489 1490
1483 1482 1481 1480 1480 1479 1478 1477 1476 1475 1474 1473 1472 1471 1471 1470 1470 1470 1469 1469 1469 1469 1469 1469 1469 1469 1469 1469 1469 1470 1470 1471 1472 1472 1473 1474 1475 1477 1478 1479 1481 1482 1483
1481 1480 1479 1478 1477 1476 1475 1474 1473 1472 1471 1469 1468 1467 1466 1466 1465 1464 1464 1464 1463 1463 1463 1463 1462 1463 1463 1463 1463 1463 1463 1464 1464 1465 1466 1467 1468 1469 1471 1472 1473 1475 1476
1478 1477 1476 1475 1474 1472 1471 1470 1469 1468 1467 1465 1464 1463 1462 1461 1460 1459 1458 1458 1457 1457 1457 1456 1456 1456 1456 1456 1456 1457 1457 1457 1457 1458 1459 1460 1461 1462 1464 1465 1466 1468 1469
1475 1474 1473 1471 1470 1469 1468 1466 1465 1464 1463 1461 1460 1458 1457 1456 1455 1454 1453 1452 1451 1451 1450 1450 1450 1449 1450 1450 1450 1450 1451 1450 1450 1451 1452 1452 1453 1455 1456 1457 1458 1460 1461
1472 1470 1469 1467 1466 1465 1464 1463 1461 1460 1459 1457 1456 1454 1453 1451 1450 1449 1447 1446 1446 1445 1444 1444 1443 1443 1443 1444 1444 1444 1444 1444 1444 1444 1445 1446 1446 1448 1449 1450 1450 1451 1452
1469 1467 1465 1464 1462 1461 1460 1459 1457 1456 1454 1453 1451 1449 1448 1446 1444 1443 1442 1441 1440 1439 1438 1437 1437 1436 1436 1437 1437 1437 1437 1437 1437 1437 1438 1439 1439 1441 1442 1443 1443 1443 1444
1465 1463 1461 1459 1458 1457 1455 1454 1452 1451 1449 1448 1446 1445 1443 1441 1440 1438 1436 1435 1434 1433 1432 1432 1431 1430 1430 1430 1430 1431 1431 1430 1430 1430 1431 1432 1432 1434 1435 1435 1435 1435 1436
1461 1459 1457 1455 1454 1452 1451 1449 1448 1446 1445 1443 1442 1440 1438 1437 1435 1433 1431 1430 1429 1428 1427 1426 1425 1425 1424 1424 1424 1424 1425 1424 1424 1423 1424 1424 1426 1427 1427 1428 1428 1428 1430
1457 1455 1453 1451 1450 1448 1447 1445 1443 1442 1440 1439 1437 1435 1433 1432 1430 1428 1426 1425 1424 1423 1422 1421 1420 1419 1419 1419 1418 1419 1419 1419 1418 1417 1417 1418 1419 1419 1420 1421 1421 1423 1423
1454 1452 1450 1447 1446 1444 1443 1441 1439 1437 1436 1434 1432 1431 1429 1427 1425 1424 1422 1421 1420 1419 1417 1416 1415 1414 1414 1413 1413 1413 1413 1412 1412 1411 1411 1412 1412 1412 1413 1413 1414 1415 1416
1450 1448 1446 1444 1442 1440 1438 1437 1435 1433 1431 1430 1428 1426 1424 1422 1421 1419 1418 1417 1415 1414 1413 1412 1411 1410 1409 1408 1408 1407 1406 1406 1406 1405 1405 1405 1405 1405 1406 1407 1407 1408 1409
1447 1445 1443 1441 1438 1436 1435 1433 1431 1429 1427 1425 1424 1422 1420 1418 1416 1415 1414 1412 1411 1410 1409 1408 1407 1406 1404 1404 1403 1403 1402 1401 1401 1400 1399 1399 1398 1398 1399 1399 1400 1401 1402
1444 1442 1440 1437 1435 1433 1431 1430 1428 1426 1424 1422 1420 1418 1416 1414 1412 1410 1409 1407 1407 1406 1405 1404 1403 1401 1400 1399 1398 1398 1397 1396 1396 1395 1393 1392 1392 1392 1392 1393 1393 1395 1395